Wind_Speed
20 24 24 28 21 19 20 24 19 16 19 23 24 26 27 29 28 31 34 38 41 40 42 45 46 49 53 52 49 47 46 44 43 43 43 43 42 41 39 40 42 45 45
24 26 25 25 19 16 12 14 16 17 19 23 24 26 29 31 32 34 44 43 47 48 47 52 54 53 49 47 46 45 46 45 42 43 46 48 47 43 42 42 41 41 42
23 26 24 14 12 13 14 17 21 23 24 24 28 28 31 32 37 42 44 48 48 48 50 50 49 50 50 50 47 46 44 46 44 43 44 46 51 51 48 45 40 38 37
8 7 9 11 13 15 18 20 25 30 30 29 31 33 37 39 41 44 45 49 48 48 49 48 49 50 51 51 50 49 49 50 53 51 49 52 54 55 59 54 51 44 45
8 9 11 17 19 19 21 24 27 31 34 31 32 34 37 40 43 44 46 47 48 48 50 49 50 50 50 50 51 53 53 53 53 55 60 59 54 46 48 59 58 56 50
9 12 15 18 24 27 29 27 26 27 30 38 39 39 40 42 46 47 48 49 49 48 47 48 49 49 51 52 53 54 56 58 58 57 50 49 53 53 48 45 53 55 54
6 3 2 7 16 25 29 29 29 29 32 35 40 44 48 51 50 48 45 43 44 45 45 48 51 53 57 58 58 56 51 44 38 45 38 39 41 39 39 40 41 46 48
8 8 13 17 21 26 30 29 31 32 35 40 45 49 51 47 41 42 42 42 45 47 50 52 53 53 53 52 47 41 40 37 36 34 37 39 37 33 33 35 35 38 40
8 11 11 18 26 33 34 32 34 37 40 43 45 42 40 43 42 40 43 45 46 46 49 50 52 52 48 37 33 34 32 33 36 35 26 27 28 29 27 28 29 31 30
11 14 19 18 25 35 37 34 39 44 47 43 38 41 40 41 43 43 44 45 47 49 49 48 44 34 35 36 36 36 35 35 32 32 33 32 27 26 26 26 25 27 28
13 18 22 30 36 34 40 35 44 44 41 38 41 40 39 41 42 46 46 47 48 48 44 40 33 35 36 37 36 37 34 30 31 26 25 28 29 27 27 27 27 27 26
16 29 29 32 37 41 39 43 41 41 37 43 39 38 38 41 43 46 45 45 45 42 40 37 36 32 32 33 36 37 37 35 32 27 30 32 33 33 33 36 35 33 32
26 31 33 37 40 41 39 35 36 37 46 38 38 40 40 41 45 48 41 42 42 40 37 34 32 31 32 32 32 32 33 31 33 34 35 35 33 34 33 33 33 33 35
29 35 37 42 39 34 33 33 35 36 42 43 48 46 45 48 48 42 44 41 40 38 35 31 32 31 31 32 33 33 34 33 34 33 33 34 34 34 31 31 32 33 34
37 37 41 38 37 32 28 35 35 37 43 41 48 40 40 38 46 46 49 40 36 38 36 33 31 30 31 30 33 33 31 32 33 33 33 33 32 33 34 34 37 35 34
39 40 38 39 35 30 28 28 32 36 40 35 39 34 47 43 42 49 48 38 34 39 37 33 32 31 32 35 35 34 33 34 37 37 36 35 34 32 28 30 34 34 33
37 38 36 29 25 25 27 30 30 32 42 45 46 40 45 47 37 47 45 37 35 36 36 33 33 33 33 36 38 38 38 39 39 40 39 36 34 33 33 35 36 34 33
35 35 28 24 25 34 29 31 38 43 39 39 43 40 51 42 34 45 46 36 34 36 33 33 35 34 34 37 40 40 40 40 38 37 35 32 30 29 31 32 32 32 32
31 24 25 27 32 31 33 41 44 38 32 34 41 42 49 33 31 48 43 29 35 34 32 33 36 35 37 39 41 40 38 37 36 33 30 28 27 26 26 28 29 29 29
28 26 26 30 31 35 41 44 40 38 35 39 44 45 40 39 38 46 29 30 36 30 33 32 31 35 39 39 38 39 37 35 33 31 28 24 23 23 22 23 24 25 23
22 25 30 33 36 42 44 37 38 40 40 45 46 41 38 37 38 33 28 37 31 32 33 30 33 37 38 36 38 38 36 35 33 28 24 20 18 20 22 22 23 24 24
26 28 32 36 39 40 38 40 41 47 45 42 39 34 28 20 26 28 24 28 31 29 28 30 35 38 36 36 37 36 32 28 27 25 23 21 19 18 19 20 20 20 19
32 38 35 41 37 33 34 35 49 48 44 39 35 30 28 27 23 20 26 28 28 27 28 31 36 38 36 36 36 29 25 23 23 22 20 18 17 15 14 15 15 12 8
44 41 42 34 31 32 36 46 45 42 40 37 32 27 22 18 19 20 23 26 26 26 27 31 35 37 35 37 31 25 20 19 19 19 17 16 14 12 12 12 6 3 5
40 41 31 34 39 38 41 42 41 39 37 32 27 19 18 19 18 19 22 23 23 25 27 30 33 36 34 35 31 24 21 19 19 18 16 14 12 12 11 11 7 3 3
39 36 36 41 41 42 42 40 39 36 33 28 20 19 18 16 17 18 20 22 23 24 26 28 29 32 32 33 29 22 19 18 18 17 15 14 13 12 12 11 11 8 4
Wind_Direction
201 209 221 246 248 252 261 272 288 293 289 287 293 291 288 288 291 296 297 297 295 299 303 302 302 302 302 302 301 299 295 290 286 281 278 276 275 276 275 279 285 285 286
216 225 239 250 260 268 269 281 289 293 297 300 289 283 284 285 288 291 295 294 302 304 305 303 302 302 302 300 299 295 291 285 283 283 282 282 278 276 278 280 281 282 287
233 241 248 249 253 266 282 292 300 304 307 294 287 287 287 290 294 290 291 295 301 302 300 302 303 302 302 301 299 296 291 286 284 283 283 284 282 282 277 275 269 272 273
170 238 256 244 263 280 292 304 309 304 301 290 287 288 289 292 294 297 299 299 300 300 304 303 302 301 301 299 297 294 290 287 288 284 283 287 287 288 283 275 272 263 262
211 258 277 280 281 288 301 310 308 302 299 292 288 289 290 292 295 300 301 303 303 305 303 302 300 301 298 297 295 295 292 289 286 282 283 283 281 275 273 276 274 272 262
286 280 290 306 299 298 303 308 308 305 302 307 303 299 298 301 307 306 303 302 303 303 304 303 301 300 297 295 292 292 294 292 291 289 287 286 286 284 281 273 273 273 268
203 187 235 253 290 301 308 313 317 311 306 304 304 305 308 307 304 302 303 303 304 305 304 301 300 299 298 299 298 298 296 294 295 292 293 291 293 287 283 281 276 275 271
327 316 309 312 309 301 308 308 314 314 307 302 303 301 301 304 305 305 305 306 306 308 307 308 306 305 304 303 302 299 294 295 290 290 290 292 294 293 293 290 289 280 277
299 298 299 307 295 301 306 311 313 316 311 308 305 303 303 304 305 308 308 307 310 309 309 310 309 309 307 304 299 291 290 287 287 292 299 302 300 299 292 285 286 283 281
284 287 301 282 287 302 308 306 308 310 309 309 308 310 309 307 308 307 309 313 314 314 312 311 311 309 303 300 298 295 296 293 293 292 297 298 275 285 285 289 285 293 293
279 294 279 283 302 300 307 298 301 295 308 310 311 308 307 308 308 310 318 316 313 312 312 311 304 296 295 296 295 296 299 296 298 298 284 274 274 282 284 287 286 287 286
276 295 300 299 303 299 294 300 301 307 309 309 307 308 310 309 309 314 314 311 310 313 318 317 313 300 302 298 294 296 301 297 296 301 294 286 282 281 280 284 281 279 276
296 297 294 311 315 311 312 305 304 303 305 310 307 310 310 307 309 310 311 313 317 318 317 312 308 304 302 299 298 298 296 303 302 300 297 294 291 289 288 284 278 272 270
304 303 308 313 313 314 312 302 305 303 311 309 316 314 315 312 313 321 316 316 313 314 313 311 309 307 306 305 301 302 302 301 297 297 294 292 290 289 287 283 282 279 276
309 314 313 315 317 315 302 309 314 312 313 307 312 310 319 300 310 315 318 314 313 316 316 311 308 308 308 304 302 308 309 304 302 300 297 294 291 289 287 281 280 280 279
312 311 315 313 312 314 308 304 309 313 308 296 307 309 306 300 302 316 315 316 308 314 314 314 312 310 308 308 313 315 310 304 302 302 299 295 291 289 284 277 279 280 279
311 314 314 317 308 308 304 312 309 306 304 307 303 297 302 304 296 318 317 316 300 312 312 314 313 316 318 314 314 313 310 306 304 301 298 295 291 284 277 271 273 276 278
318 321 328 317 312 313 319 303 301 306 295 298 307 301 306 293 295 317 315 296 301 313 314 314 319 321 317 313 313 312 308 306 304 302 300 298 293 287 281 278 276 274 274
327 324 317 316 314 310 300 298 301 312 308 306 296 299 305 296 293 318 306 280 303 317 310 314 317 317 319 316 313 313 316 311 308 305 302 300 294 286 281 279 278 276 273
322 322 316 310 305 299 297 299 312 310 310 303 300 303 305 295 300 302 279 289 311 308 314 324 320 321 320 320 319 319 319 316 312 310 307 301 295 290 286 280 280 279 279
321 309 307 301 297 296 302 312 312 314 305 307 310 306 302 301 299 300 300 308 313 311 321 322 326 326 326 326 324 323 322 318 317 318 317 310 299 286 292 291 288 284 281
312 309 300 300 299 308 313 313 313 311 318 318 316 316 316 309 309 314 312 309 312 322 325 327 329 331 332 331 326 326 324 324 324 324 322 319 311 305 299 296 293 288 284
308 308 309 311 323 320 312 304 309 319 321 321 319 319 316 308 304 303 301 306 320 328 327 330 333 335 334 332 331 329 330 328 327 328 328 325 320 319 314 307 299 289 271
317 316 319 323 314 309 303 305 317 320 322 323 322 322 321 312 313 316 315 321 325 328 329 335 336 337 338 339 340 339 338 337 339 338 336 332 332 328 325 329 322 276 251
317 319 320 305 307 305 310 318 319 321 325 324 323 321 320 316 322 319 320 325 327 329 334 337 338 340 343 346 345 344 344 346 348 348 346 347 346 344 347 357 5 340 299
318 315 313 313 320 319 317 317 321 324 324 322 320 318 318 320 321 322 325 327 328 331 336 338 341 345 346 350 348 345 344 345 349 351 354 356 357 357 357 2 7 359 304
Height
3162 3159 3158 3161 3162 3161 3161 3158 3159 3158 3157 3155 3153 3152 3148 3145 3143 3140 3136 3133 3129 3129 3125 3119 3115 3111 3106 3102 3098 3094 3091 3089 3088 3083 3081 3079 3078 3077 3076 3075 3073 3071 3070
3156 3156 3157 3158 3158 3159 3158 3157 3157 3156 3154 3150 3148 3147 3145 3142 3139 3136 3130 3125 3122 3117 3115 3110 3104 3099 3095 3092 3089 3084 3080 3078 3077 3073 3070 3064 3064 3065 3066 3065 3064 3062 3062
3153 3154 3154 3155 3156 3156 3155 3154 3152 3151 3150 3146 3142 3142 3139 3136 3134 3130 3127 3121 3114 3110 3104 3099 3093 3087 3083 3080 3077 3074 3070 3065 3065 3065 3061 3055 3050 3049 3052 3053 3053 3053 3051
3154 3151 3151 3153 3153 3152 3151 3149 3147 3144 3143 3142 3138 3135 3132 3129 3126 3121 3115 3110 3105 3098 3095 3089 3083 3078 3074 3069 3063 3060 3057 3053 3051 3051 3049 3047 3042 3037 3032 3038 3040 3044 3042
3151 3150 3150 3149 3148 3148 3148 3145 3142 3137 3133 3134 3132 3128 3124 3120 3116 3111 3104 3099 3094 3089 3085 3079 3074 3068 3062 3057 3052 3048 3045 3041 3037 3036 3032 3030 3028 3027 3022 3018 3020 3024 3029
3150 3149 3148 3144 3142 3143 3141 3140 3138 3135 3129 3121 3120 3118 3113 3109 3106 3100 3095 3089 3085 3079 3075 3068 3062 3056 3050 3046 3041 3036 3032 3027 3022 3019 3016 3013 3010 3008 3007 3006 3005 3005 3009
3150 3150 3148 3145 3140 3136 3135 3133 3132 3129 3125 3119 3112 3106 3103 3100 3094 3089 3085 3080 3075 3070 3064 3057 3052 3044 3038 3033 3028 3022 3018 3013 3009 3004 3002 3000 2998 2996 2994 2991 2991 2989 2990
3147 3145 3143 3140 3137 3133 3130 3126 3124 3122 3119 3113 3109 3101 3095 3090 3086 3082 3076 3070 3064 3058 3051 3044 3038 3032 3025 3019 3014 3010 3006 3003 3000 2996 2992 2990 2989 2987 2985 2982 2979 2977 2976
3146 3144 3140 3137 3133 3129 3125 3121 3117 3114 3111 3105 3099 3095 3089 3083 3077 3072 3065 3059 3055 3049 3042 3034 3026 3021 3014 3009 3004 3001 2998 2994 2991 2988 2985 2982 2980 2978 2976 2974 2971 2970 2968
3143 3139 3136 3132 3127 3124 3120 3115 3110 3105 3100 3095 3090 3084 3078 3071 3065 3061 3056 3051 3044 3038 3032 3025 3018 3012 3006 3002 2997 2993 2990 2986 2983 2980 2978 2976 2974 2971 2969 2967 2965 2963 2961
3136 3134 3129 3125 3124 3120 3116 3110 3104 3098 3092 3086 3081 3075 3069 3063 3056 3050 3045 3039 3034 3028 3022 3015 3010 3005 2999 2994 2988 2985 2981 2978 2975 2973 2971 2968 2966 2963 2961 2959 2957 2956 2956
3130 3127 3126 3122 3118 3112 3107 3102 3094 3088 3084 3079 3073 3067 3060 3054 3047 3042 3037 3031 3025 3018 3011 3005 3001 2996 2991 2985 2982 2977 2973 2969 2966 2964 2962 2960 2958 2956 2954 2952 2949 2948 2947
3125 3123 3120 3116 3109 3103 3097 3093 3086 3080 3074 3068 3063 3057 3051 3044 3039 3033 3028 3021 3014 3008 3002 2997 2992 2988 2983 2979 2974 2969 2965 2962 2959 2955 2952 2949 2947 2945 2942 2940 2939 2937 2936
3120 3115 3111 3106 3101 3095 3090 3083 3079 3071 3066 3060 3055 3050 3044 3037 3031 3025 3018 3011 3006 3000 2994 2989 2984 2980 2975 2970 2965 2961 2957 2953 2950 2946 2943 2940 2937 2934 2932 2930 2928 2927 2925
3113 3109 3104 3098 3092 3087 3082 3077 3072 3066 3059 3052 3045 3038 3033 3026 3019 3016 3011 3004 2998 2992 2987 2982 2977 2973 2968 2961 2957 2953 2949 2944 2940 2937 2933 2930 2927 2925 2922 2920 2917 2916 2915
3107 3102 3097 3091 3085 3081 3076 3071 3066 3060 3050 3045 3039 3032 3024 3018 3013 3009 3002 2997 2991 2986 2980 2975 2971 2966 2960 2954 2950 2946 2941 2935 2930 2926 2923 2919 2917 2914 2911 2908 2906 2906 2905
3101 3095 3089 3083 3078 3074 3069 3064 3060 3055 3046 3041 3033 3024 3017 3011 3005 3001 2995 2989 2984 2979 2974 2969 2964 2959 2954 2947 2942 2937 2931 2924 2920 2915 2910 2907 2905 2902 2899 2897 2896 2895 2894
3092 3086 3080 3077 3073 3068 3063 3057 3051 3046 3040 3034 3026 3015 3007 2999 2995 2992 2986 2981 2977 2973 2968 2963 2958 2953 2948 2941 2932 2927 2921 2915 2909 2904 2899 2896 2893 2891 2889 2886 2885 2885 2885
3084 3081 3077 3073 3068 3063 3055 3048 3041 3035 3029 3024 3014 3009 3004 2993 2988 2985 2979 2974 2971 2967 2961 2957 2953 2947 2940 2933 2925 2917 2911 2904 2899 2894 2890 2887 2883 2881 2879 2877 2876 2876 2876
3080 3076 3073 3068 3061 3054 3046 3039 3032 3027 3022 3012 3004 3000 2995 2988 2983 2978 2973 2970 2965 2960 2955 2953 2947 2940 2933 2924 2916 2909 2902 2895 2890 2885 2881 2878 2875 2872 2871 2869 2868 2867 2867
3075 3071 3066 3060 3052 3044 3037 3030 3024 3019 3011 3004 2997 2990 2985 2980 2976 2971 2968 2964 2959 2955 2951 2947 2941 2934 2925 2917 2909 2901 2894 2887 2881 2877 2873 2871 2868 2866 2863 2862 2861 2860 2859
3068 3063 3056 3049 3042 3035 3029 3022 3016 3008 3002 2995 2988 2982 2977 2972 2970 2966 2963 2959 2954 2950 2946 2941 2935 2927 2919 2911 2903 2895 2888 2882 2876 2872 2868 2865 2863 2861 2859 2857 2855 2853 2852
3060 3053 3046 3039 3034 3028 3021 3013 3007 3000 2993 2986 2980 2974 2971 2968 2965 2962 2958 2954 2950 2946 2941 2936 2929 2921 2914 2906 2898 2890 2884 2879 2874 2869 2865 2862 2859 2857 2855 2852 2850 2848 2848
3050 3043 3037 3031 3026 3021 3013 3006 2999 2992 2986 2978 2973 2968 2965 2962 2960 2958 2954 2950 2946 2941 2937 2931 2924 2917 2910 2901 2893 2886 2882 2877 2872 2868 2864 2860 2858 2855 2853 2850 2847 2846 2846
3041 3035 3029 3024 3018 3013 3004 2998 2992 2985 2978 2972 2968 2964 2962 2959 2956 2953 2950 2946 2942 2938 2933 2927 2921 2913 2906 2898 2889 2883 2879 2875 2871 2867 2864 2860 2857 2855 2852 2849 2847 2846 2845
3032 3027 3021 3015 3009 3003 2996 2990 2984 2978 2972 2967 2964 2961 2958 2955 2953 2950 2947 2943 2939 2935 2931 2926 2919 2912 2904 2897 2889 2883 2879 2875 2871 2868 2864 2861 2858 2855 2852 2850 2848 2846 2846